ORBCOMM FM06 1 25118U 97084G 26127.78899632 .00001263 00000+0 37977-3 0 9992 2 25118 45.0139 247.1754 0001130 190.0868 342.4227 14.47465309488533 ORBCOMM FM04 1 25159U 98007C 26127.84307398 .00000896 00000+0 35300-3 0 9992 2 25159 107.9621 86.3941 0039755 35.0180 325.3564 14.35660852470804 ORBCOMM FM19 1 25415U 98046C 26127.57109606 .00000956 00000+0 34971-3 0 9992 2 25415 44.9938 76.6094 0001887 74.2208 96.0392 14.39416730450922 ORBCOMM FM20 1 25416U 98046D 26127.58030396 .00000663 00000+0 26379-3 0 9991 2 25416 44.9937 84.0434 0001350 315.4335 44.6404 14.38005783450945 ORBCOMM FM27 1 25481U 98053G 26127.78478419 .00000643 00000+0 25198-3 0 9991 2 25481 45.0038 167.2390 0001939 266.0501 94.0126 14.39063158444411 ORBCOMM FM32 1 25982U 99065C 26127.69241254 .00000648 00000+0 26362-3 0 9995 2 25982 45.0172 4.9078 0005215 217.7658 142.2825 14.37075290381266 ORBCOMM FM109 1 40086U 14040A 26127.62151965 .00000394 00000+0 11958-3 0 9992 2 40086 47.0036 283.2716 0001040 20.7040 339.3888 14.58802853628425 ORBCOMM FM114 1 41179U 15081A 26127.91301116 .00000300 00000+0 99755-4 0 9998 2 41179 47.0038 192.4091 0002034 346.9754 13.1079 14.58813893551876 ORBCOMM FM110 1 41182U 15081D 26127.90174315 .00000449 00000+0 13130-3 0 9996 2 41182 47.0010 191.9145 0004002 252.7505 107.2942 14.58817576551741 ORBCOMM FM118 1 41183U 15081E 26127.86781867 .00000467 00000+0 13515-3 0 9995 2 41183 47.0034 192.4015 0003800 222.3009 137.7584 14.58839291551846 ORBCOMM FM112 1 41184U 15081F 26127.94079875 .00000619 00000+0 16807-3 0 9990 2 41184 46.9979 100.5442 0002002 22.2024 337.8948 14.58564611553079 ORBCOMM FM113 1 41185U 15081G 26127.30048283 .00000373 00000+0 11523-3 0 9997 2 41185 46.9996 103.9359 0001697 346.5426 13.5415 14.58812827552969 ORBCOMM FM108 1 41187U 15081J 26127.94795736 .00000644 00000+0 17256-3 0 9991 2 41187 47.0065 12.4376 0002597 2.3564 357.7334 14.58813424554209 ORBCOMM FM117 1 41188U 15081K 26127.98188621 .00000616 00000+0 16669-3 0 9991 2 41188 47.0031 10.9234 0002984 10.5028 349.5919 14.58811605554257 ORBCOMM FM116 1 41189U 15081L 26127.62018878 .00000271 00000+0 93562-4 0 9994 2 41189 47.0013 102.4214 0002422 258.4892 101.5722 14.58821417553015